Location: Unspecified
(0.0000°N, 0.0000°E)
Time: 22:52:24
(UTC+00:00)

Vanguard 2 - Pass Details

Date: 04 October 2020
Orbit: 554 x 2937 km, 32.9° (Epoch: 28 October)

Event Time Altitude Azimuth Distance (km) Brightness Sun altitude
Rises 12:43:43 0° 279° (W) 2,934 10.7 75.5°
Reaches altitude 10° 12:45:59 10° 266° (W) 2,182 10.2 74.9°
Maximum altitude 12:50:20 29° 206° (SSW) 1,585 9.8 73.9°
Drops below altitude 10° 12:56:37 10° 148° (SSE) 3,209 10.8 72.4°
Sets 13:00:45 0° 138° (SE) 4,623 11.4 71.4°
